| time (UTC) | temp C | wind direction | speed KPH | gust KPH | rain 1hr cm | rain 24hr cm | rain mn cm | humidity % | barometer mb |
| 20260507174615 | 13 | 231 | 1.6 | 1.6 | 0.00 | 0.36 | 0.36 | 71 | 1010.3 |
| 20260507174113 | 13 | 131 | 0.0 | 0.0 | 0.00 | 0.36 | 0.36 | 70 | 1010.3 |
| 20260507173610 | 13 | 168 | 1.6 | 3.2 | 0.00 | 0.36 | 0.36 | 69 | 1010.4 |
| 20260507173107 | 13 | 345 | 0.0 | 0.0 | 0.00 | 0.36 | 0.36 | 69 | 1010.4 |
| 20260507172602 | 13 | 238 | 1.6 | 1.6 | 0.00 | 0.36 | 0.36 | 67 | 1011.0 |
| 20260507172100 | 13 | 47 | 0.0 | 3.2 | 0.00 | 0.36 | 0.36 | 68 | 1010.6 |
| 20260507171555 | 13 | 238 | 0.0 | 3.2 | 0.00 | 0.36 | 0.36 | 71 | 1010.6 |
| 20260507171052 | 13 | 1 | 0.0 | 1.6 | 0.00 | 0.36 | 0.36 | 70 | 1010.5 |
| 20260507170549 | 13 | 266 | 0.0 | 0.0 | 0.00 | 0.36 | 0.36 | 68 | 1011.0 |
| 20260507170046 | 13 | 285 | 1.6 | 1.6 | 0.00 | 0.36 | 0.36 | 66 | 1010.7 |
| 20260507165542 | 13 | 6 | 0.0 | 1.6 | 0.00 | 0.36 | 0.36 | 68 | 1010.9 |
| 20260507165038 | 13 | 119 | 1.6 | 8.0 | 0.00 | 0.36 | 0.36 | 69 | 1011.1 |
| 20260507164534 | 13 | 228 | 1.6 | 1.6 | 0.00 | 0.36 | 0.36 | 69 | 1011.0 |
| 20260507164032 | 13 | 274 | 0.0 | 0.0 | 0.00 | 0.36 | 0.36 | 69 | 1011.0 |
| 20260507163529 | 13 | 270 | 0.0 | 0.0 | 0.00 | 0.36 | 0.36 | 74 | 1011.2 |
| 20260507163027 | 12 | 250 | 0.0 | 1.6 | 0.00 | 0.36 | 0.36 | 69 | 1011.7 |
| 20260507162521 | 13 | 185 | 3.2 | 8.0 | 0.00 | 0.36 | 0.36 | 69 | 1011.7 |
| 20260507162018 | 13 | 339 | 0.0 | 1.6 | 0.00 | 0.36 | 0.36 | 65 | 1011.8 |
| 20260507161515 | 13 | 310 | 0.0 | 1.6 | 0.13 | 0.36 | 0.36 | 69 | 1011.7 |
| 20260507161012 | 12 | 316 | 0.0 | 0.0 | 0.13 | 0.36 | 0.36 | 69 | 1011.6 |
| 20260507160507 | 12 | 239 | 0.0 | 4.8 | 0.00 | 0.33 | 0.33 | 65 | 1011.7 |
| 20260507160004 | 13 | 12 | 0.0 | 1.6 | 0.00 | 0.33 | 0.33 | 61 | 1011.4 |
| 20260507155459 | 13 | 1 | 0.0 | 1.6 | 0.00 | 0.33 | 0.33 | 60 | 1011.5 |
| 20260507154957 | 13 | 2 | 0.0 | 1.6 | 0.00 | 0.33 | 0.33 | 62 | 1011.7 |
| 20260507154453 | 13 | 98 | 0.0 | 3.2 | 0.00 | 0.33 | 0.33 | 63 | 1011.4 |
| 20260507153950 | 13 | 5 | 0.0 | 0.0 | 0.00 | 0.33 | 0.33 | 63 | 1011.6 |
| 20260507153447 | 13 | 17 | 0.0 | 1.6 | 0.00 | 0.33 | 0.33 | 63 | 1011.6 |
| 20260507152943 | 12 | 115 | 0.0 | 1.6 | 0.00 | 0.33 | 0.33 | 64 | 1011.8 |
| 20260507152439 | 13 | 47 | 1.6 | 1.6 | 0.00 | 0.33 | 0.33 | 64 | 1011.8 |
| 20260507151936 | 12 | 0 | 0.0 | 1.6 | 0.00 | 0.33 | 0.33 | 66 | 1011.8 |
| 20260507151432 | 12 | 8 | 0.0 | 0.0 | 0.00 | 0.33 | 0.33 | 67 | 1011.8 |
| 20260507150929 | 12 | 344 | 0.0 | 0.0 | 0.00 | 0.33 | 0.33 | 66 | 1011.7 |
| 20260507150426 | 12 | 357 | 0.0 | 1.6 | 0.00 | 0.33 | 0.33 | 68 | 1011.8 |
| 20260507145922 | 12 | 1 | 0.0 | 0.0 | 0.00 | 0.33 | 0.33 | 67 | 1011.9 |
| 20260507145418 | 12 | 359 | 0.0 | 0.0 | 0.00 | 0.33 | 0.33 | 67 | 1011.9 |
| 20260507144915 | 12 | 359 | 0.0 | 1.6 | 0.00 | 0.33 | 0.33 | 70 | 1011.9 |
| 20260507144412 | 12 | 358 | 0.0 | 0.0 | 0.00 | 0.33 | 0.33 | 69 | 1012.2 |
| 20260507143909 | 12 | 358 | 0.0 | 0.0 | 0.00 | 0.33 | 0.33 | 69 | 1012.2 |
| 20260507143407 | 12 | 358 | 0.0 | 0.0 | 0.00 | 0.33 | 0.33 | 70 | 1012.3 |
| 20260507142903 | 12 | 358 | 0.0 | 0.0 | 0.00 | 0.33 | 0.33 | 72 | 1012.2 |
| 20260507142359 | 12 | 342 | 0.0 | 0.0 | 0.00 | 0.33 | 0.33 | 72 | 1012.3 |
| 20260507141856 | 12 | 343 | 0.0 | 1.6 | 0.00 | 0.33 | 0.33 | 73 | 1012.2 |
| 20260507141352 | 12 | 332 | 0.0 | 0.0 | 0.00 | 0.33 | 0.33 | 74 | 1012.7 |
| 20260507140849 | 12 | 299 | 1.6 | 1.6 | 0.00 | 0.33 | 0.33 | 73 | 1012.6 |
| 20260507140346 | 12 | 358 | 4.8 | 4.8 | 0.00 | 0.33 | 0.33 | 72 | 1012.6 |
| 20260507135844 | 12 | 4 | 0.0 | 0.0 | 0.00 | 0.33 | 0.33 | 73 | 1012.7 |
| 20260507135340 | 12 | 353 | 0.0 | 0.0 | 0.00 | 0.33 | 0.33 | 73 | 1012.4 |
| 20260507134838 | 12 | 343 | 1.6 | 1.6 | 0.00 | 0.33 | 0.33 | 73 | 1012.4 |
| 20260507134333 | 12 | 354 | 0.0 | 1.6 | 0.00 | 0.33 | 0.33 | 73 | 1012.6 |
| 20260507133830 | 12 | 39 | 0.0 | 1.6 | 0.00 | 0.33 | 0.33 | 74 | 1012.7 |
| 20260507133325 | 12 | 75 | 1.6 | 1.6 | 0.00 | 0.33 | 0.33 | 75 | 1012.6 |
| 20260507132824 | 12 | 5 | 0.0 | 1.6 | 0.00 | 0.33 | 0.33 | 75 | 1012.4 |
| 20260507132320 | 12 | 353 | 0.0 | 0.0 | 0.00 | 0.33 | 0.33 | 76 | 1012.4 |
| 20260507131818 | 12 | 19 | 0.0 | 0.0 | 0.00 | 0.33 | 0.33 | 75 | 1012.6 |
| 20260507131314 | 12 | 48 | 0.0 | 1.6 | 0.00 | 0.33 | 0.33 | 78 | 1012.6 |
| 20260507130811 | 12 | 352 | 0.0 | 1.6 | 0.00 | 0.33 | 0.33 | 78 | 1012.2 |
| 20260507130308 | 12 | 0 | 0.0 | 0.0 | 0.00 | 0.33 | 0.33 | 79 | 1012.4 |
| 20260507125807 | 12 | 1 | 0.0 | 0.0 | 0.00 | 0.33 | 0.33 | 79 | 1012.6 |
| 20260507125306 | 12 | 350 | 0.0 | 1.6 | 0.00 | 0.33 | 0.33 | 81 | 1012.6 |
| 20260507124801 | 12 | 10 | 0.0 | 0.0 | 0.00 | 0.33 | 0.33 | 81 | 1012.6 |
| 20260507124257 | 12 | 8 | 0.0 | 0.0 | 0.00 | 0.33 | 0.33 | 82 | 1012.3 |
| 20260507123756 | 12 | 348 | 1.6 | 1.6 | 0.00 | 0.33 | 0.33 | 83 | 1012.6 |
| 20260507123253 | 12 | 44 | 0.0 | 3.2 | 0.00 | 0.33 | 0.33 | 83 | 1012.4 |
| 20260507122748 | 12 | 341 | 0.0 | 1.6 | 0.00 | 0.33 | 0.33 | 85 | 1012.1 |
| 20260507122244 | 12 | 300 | 0.0 | 0.0 | 0.00 | 0.33 | 0.33 | 86 | 1011.9 |
| 20260507121740 | 12 | 353 | 0.0 | 0.0 | 0.00 | 0.33 | 0.33 | 86 | 1012.2 |
| 20260507121236 | 12 | 353 | 0.0 | 0.0 | 0.00 | 0.33 | 0.33 | 86 | 1011.9 |
| 20260507120732 | 12 | 347 | 0.0 | 3.2 | 0.00 | 0.33 | 0.33 | 87 | 1011.9 |
| 20260507120230 | 12 | 339 | 0.0 | 1.6 | 0.00 | 0.33 | 0.33 | 88 | 1012.1 |
| 20260507115726 | 12 | 345 | 0.0 | 0.0 | 0.00 | 0.33 | 0.33 | 89 | 1011.9 |
| 20260507115222 | 12 | 302 | 0.0 | 0.0 | 0.00 | 0.33 | 0.33 | 90 | 1012.1 |
| 20260507114717 | 12 | 310 | 0.0 | 0.0 | 0.00 | 0.33 | 0.33 | 90 | 1011.8 |
| 20260507114215 | 12 | 304 | 0.0 | 1.6 | 0.00 | 0.33 | 0.33 | 91 | 1011.8 |
| 20260507113712 | 12 | 310 | 0.0 | 0.0 | 0.00 | 0.33 | 0.33 | 91 | 1011.4 |
| 20260507113209 | 12 | 340 | 0.0 | 0.0 | 0.00 | 0.33 | 0.33 | 92 | 1011.6 |
| 20260507112707 | 11 | 344 | 0.0 | 0.0 | 0.00 | 0.33 | 0.33 | 92 | 1011.9 |
| 20260507112203 | 11 | 343 | 0.0 | 0.0 | 0.00 | 0.33 | 0.33 | 93 | 1011.7 |
| 20260507111701 | 11 | 343 | 0.0 | 0.0 | 0.00 | 0.33 | 0.33 | 93 | 1011.5 |
| 20260507111158 | 11 | 335 | 0.0 | 0.0 | 0.00 | 0.33 | 0.33 | 94 | 1011.6 |
| 20260507110653 | 11 | 335 | 0.0 | 0.0 | 0.00 | 0.33 | 0.33 | 94 | 1011.5 |
| 20260507110150 | 11 | 335 | 0.0 | 0.0 | 0.00 | 0.33 | 0.33 | 94 | 1011.6 |
| 20260507105647 | 11 | 335 | 0.0 | 0.0 | 0.00 | 0.33 | 0.33 | 94 | 1011.6 |
| 20260507105143 | 11 | 335 | 0.0 | 0.0 | 0.00 | 0.33 | 0.33 | 94 | 1011.4 |
| 20260507104641 | 11 | 335 | 0.0 | 0.0 | 0.00 | 0.33 | 0.33 | 95 | 1011.5 |
| 20260507104137 | 11 | 335 | 0.0 | 0.0 | 0.00 | 0.33 | 0.33 | 95 | 1011.6 |
| 20260507103633 | 11 | 336 | 0.0 | 1.6 | 0.00 | 0.33 | 0.33 | 95 | 1011.6 |
| 20260507103130 | 11 | 332 | 0.0 | 0.0 | 0.00 | 0.33 | 0.33 | 95 | 1011.3 |
| 20260507102626 | 11 | 340 | 0.0 | 0.0 | 0.00 | 0.33 | 0.33 | 95 | 1011.4 |
| 20260507102123 | 11 | 340 | 0.0 | 0.0 | 0.00 | 0.33 | 0.33 | 95 | 1011.1 |
| 20260507101619 | 11 | 340 | 0.0 | 0.0 | 0.00 | 0.33 | 0.33 | 96 | 1011.3 |
| 20260507101115 | 11 | 340 | 0.0 | 0.0 | 0.00 | 0.33 | 0.33 | 96 | 1011.3 |
| 20260507100612 | 11 | 341 | 0.0 | 0.0 | 0.00 | 0.33 | 0.33 | 96 | 1011.2 |
| 20260507100110 | 11 | 340 | 0.0 | 0.0 | 0.00 | 0.33 | 0.33 | 96 | 1011.3 |
| 20260507095608 | 11 | 340 | 0.0 | 0.0 | 0.00 | 0.33 | 0.33 | 96 | 1011.2 |
| 20260507095104 | 11 | 341 | 0.0 | 0.0 | 0.00 | 0.33 | 0.33 | 96 | 1011.1 |
| 20260507094600 | 11 | 341 | 0.0 | 0.0 | 0.00 | 0.33 | 0.33 | 96 | 1011.0 |
| 20260507094058 | 11 | 340 | 0.0 | 0.0 | 0.00 | 0.33 | 0.33 | 97 | 1011.1 |
| 20260507093555 | 11 | 340 | 0.0 | 0.0 | 0.00 | 0.33 | 0.33 | 97 | 1011.0 |
| 20260507093054 | 11 | 340 | 0.0 | 0.0 | 0.00 | 0.33 | 0.33 | 97 | 1011.0 |
| 20260507092549 | 11 | 340 | 0.0 | 0.0 | 0.00 | 0.33 | 0.33 | 97 | 1010.9 |
| 20260507092046 | 11 | 340 | 0.0 | 0.0 | 0.00 | 0.33 | 0.33 | 98 | 1011.0 |
| 20260507091543 | 11 | 340 | 0.0 | 0.0 | 0.00 | 0.33 | 0.33 | 98 | 1011.0 |
| 20260507091039 | 11 | 340 | 0.0 | 0.0 | 0.00 | 0.33 | 0.33 | 98 | 1010.8 |
| 20260507090535 | 11 | 340 | 0.0 | 0.0 | 0.00 | 0.33 | 0.33 | 98 | 1011.1 |
| 20260507090032 | 11 | 340 | 0.0 | 0.0 | 0.00 | 0.33 | 0.33 | 98 | 1010.8 |
| 20260507085529 | 11 | 340 | 0.0 | 0.0 | 0.00 | 0.33 | 0.33 | 98 | 1010.7 |
| 20260507085026 | 11 | 340 | 0.0 | 0.0 | 0.00 | 0.33 | 0.33 | 98 | 1010.3 |
| 20260507084522 | 11 | 340 | 0.0 | 0.0 | 0.00 | 0.33 | 0.33 | 98 | 1010.7 |
| 20260507084020 | 11 | 339 | 0.0 | 0.0 | 0.00 | 0.33 | 0.33 | 98 | 1010.7 |
| 20260507083516 | 11 | 339 | 0.0 | 0.0 | 0.00 | 0.33 | 0.33 | 98 | 1010.7 |
| 20260507083013 | 11 | 339 | 0.0 | 0.0 | 0.00 | 0.33 | 0.33 | 99 | 1010.7 |
| 20260507082509 | 11 | 340 | 0.0 | 1.6 | 0.00 | 0.33 | 0.33 | 99 | 1010.9 |
| 20260507082005 | 11 | 325 | 0.0 | 0.0 | 0.00 | 0.33 | 0.33 | 99 | 1011.0 |
| 20260507081501 | 11 | 340 | 0.0 | 1.6 | 0.00 | 0.33 | 0.33 | 99 | 1010.8 |
| 20260507080959 | 11 | 348 | 0.0 | 0.0 | 0.00 | 0.33 | 0.33 | 99 | 1010.9 |
| 20260507080454 | 11 | 347 | 0.0 | 0.0 | 0.00 | 0.33 | 0.33 | 99 | 1010.7 |
| 20260507075950 | 11 | 345 | 0.0 | 0.0 | 0.00 | 0.33 | 0.33 | 99 | 1010.6 |
| 20260507075447 | 11 | 330 | 0.0 | 0.0 | 0.00 | 0.33 | 0.33 | 99 | 1010.7 |
| 20260507074943 | 11 | 352 | 0.0 | 3.2 | 0.00 | 0.33 | 0.33 | 99 | 1010.5 |
| 20260507074440 | 11 | 354 | 0.0 | 0.0 | 0.00 | 0.33 | 0.33 | 99 | 1010.3 |
| 20260507073938 | 11 | 354 | 0.0 | 0.0 | 0.00 | 0.33 | 0.33 | 99 | 1010.2 |
| 20260507073434 | 11 | 7 | 0.0 | 1.6 | 0.00 | 0.33 | 0.33 | 99 | 1010.0 |
| 20260507072931 | 11 | 9 | 0.0 | 0.0 | 0.00 | 0.33 | 0.33 | 99 | 1010.1 |
| 20260507072428 | 11 | 0 | 0.0 | 0.0 | 0.00 | 0.33 | 0.33 | 99 | 1010.1 |
| 20260507071926 | 11 | 359 | 0.0 | 0.0 | 0.00 | 0.33 | 0.33 | 99 | 1010.3 |
| 20260507071423 | 11 | 1 | 0.0 | 0.0 | 0.00 | 0.33 | 0.33 | 99 | 1010.0 |
| 20260507070919 | 11 | 359 | 0.0 | 0.0 | 0.00 | 0.33 | 0.33 | 99 | 1009.9 |
| 20260507070417 | 11 | 357 | 0.0 | 0.0 | 0.00 | 0.33 | 0.33 | 99 | 1010.0 |
| 20260507065913 | 11 | 353 | 0.0 | 0.0 | 0.00 | 0.33 | 0.33 | 99 | 1010.0 |
| 20260507065410 | 11 | 354 | 0.0 | 0.0 | 0.00 | 0.33 | 0.33 | 99 | 1010.1 |
| 20260507064907 | 11 | 348 | 0.0 | 0.0 | 0.00 | 0.33 | 0.33 | 99 | 1010.0 |
| 20260507064405 | 11 | 7 | 0.0 | 1.6 | 0.00 | 0.33 | 0.33 | 99 | 1010.1 |
| 20260507063903 | 11 | 348 | 0.0 | 1.6 | 0.00 | 0.33 | 0.33 | 99 | 1010.2 |
| 20260507063400 | 12 | 63 | 1.6 | 1.6 | 0.18 | 0.33 | 0.33 | 99 | 1010.3 |
| 20260507062857 | 12 | 357 | 0.0 | 0.0 | 0.18 | 0.33 | 0.33 | 99 | 1010.1 |
| 20260507062353 | 12 | 349 | 0.0 | 1.6 | 0.00 | 0.30 | 0.30 | 99 | 1010.1 |
| 20260507061851 | 12 | 343 | 1.6 | 9.7 | 0.00 | 0.30 | 0.30 | 99 | 1010.6 |
| 20260507061349 | 12 | 315 | 0.0 | 0.0 | 0.00 | 0.30 | 0.30 | 99 | 1010.3 |
| 20260507060847 | 13 | 344 | 0.0 | 1.6 | 0.00 | 0.30 | 0.30 | 99 | 1010.1 |
| 20260507060343 | 13 | 349 | 0.0 | 1.6 | 0.00 | 0.30 | 0.30 | 99 | 1010.1 |
| 20260507055841 | 13 | 316 | 0.0 | 1.6 | 0.00 | 0.30 | 0.30 | 99 | 1010.6 |
| 20260507055335 | 13 | 58 | 0.0 | 1.6 | 0.00 | 0.30 | 0.30 | 99 | 1009.8 |
| 20260507054833 | 13 | 346 | 1.6 | 3.2 | 0.00 | 0.30 | 0.30 | 99 | 1010.5 |
| 20260507054328 | 13 | 9 | 0.0 | 0.0 | 0.00 | 0.30 | 0.30 | 99 | 1010.0 |
| 20260507053826 | 13 | 337 | 0.0 | 1.6 | 0.00 | 0.30 | 0.30 | 99 | 1010.1 |
| 20260507053324 | 13 | 325 | 0.0 | 0.0 | 0.00 | 0.30 | 0.30 | 99 | 1009.8 |
| 20260507052822 | 13 | 324 | 0.0 | 1.6 | 0.00 | 0.30 | 0.30 | 99 | 1009.7 |
| 20260507052319 | 13 | 348 | 0.0 | 0.0 | 0.00 | 0.30 | 0.30 | 99 | 1009.8 |
| 20260507051816 | 13 | 2 | 0.0 | 1.6 | 0.00 | 0.30 | 0.30 | 99 | 1009.4 |
| 20260507051314 | 13 | 0 | 0.0 | 0.0 | 0.13 | 0.30 | 0.30 | 99 | 1009.5 |
| 20260507050810 | 13 | 5 | 0.0 | 0.0 | 0.13 | 0.30 | 0.30 | 99 | 1009.4 |
| 20260507050306 | 13 | 25 | 0.0 | 0.0 | 0.18 | 0.28 | 0.28 | 99 | 1009.7 |
| 20260507045804 | 13 | 340 | 0.0 | 0.0 | 0.18 | 0.28 | 0.28 | 99 | 1009.7 |
| 20260507045300 | 13 | 353 | 0.0 | 8.0 | 0.30 | 0.25 | 0.25 | 99 | 1010.0 |
| 20260507044757 | 13 | 7 | 0.0 | 3.2 | 0.79 | 0.25 | 0.25 | 99 | 1009.3 |
| 20260507044253 | 13 | 105 | 0.0 | 0.0 | 0.79 | 0.20 | 0.20 | 99 | 1008.8 |
| 20260507043750 | 14 | 54 | 0.0 | 0.0 | 0.61 | 0.13 | 0.13 | 99 | 1009.5 |
| 20260507043247 | 15 | 353 | 0.0 | 0.0 | 0.30 | 0.05 | 0.05 | 99 | 1009.9 |
| 20260507042743 | 15 | 335 | 0.0 | 0.0 | 0.13 | 0.03 | 0.03 | 99 | 1010.2 |
| 20260507042238 | 15 | 335 | 0.0 | 0.0 | 0.00 | 0.00 | 0.00 | 99 | 1010.1 |
| 20260507041736 | 15 | 333 | 0.0 | 0.0 | 0.00 | 0.00 | 0.00 | 99 | 1009.8 |
| 20260507041232 | 15 | 326 | 0.0 | 0.0 | 0.00 | 0.00 | 0.00 | 99 | 1010.0 |
| 20260507040730 | 15 | 282 | 0.0 | 0.0 | 0.18 | 0.00 | 0.00 | 99 | 1009.9 |
| 20260507040225 | 15 | 319 | 0.0 | 0.0 | 1.07 | 0.00 | 0.00 | 98 | 1010.0 |
| 20260507035721 | 15 | 341 | 0.0 | 0.0 | 1.50 | 0.86 | 0.86 | 97 | 1010.0 |
| 20260507035217 | 16 | 5 | 0.0 | 0.0 | 0.61 | 0.66 | 0.66 | 97 | 1010.3 |
| 20260507034715 | 16 | 0 | 0.0 | 0.0 | 0.48 | 0.61 | 0.61 | 96 | 1010.0 |
| 20260507034212 | 16 | 344 | 0.0 | 1.6 | 0.97 | 0.56 | 0.56 | 95 | 1010.2 |
| 20260507033710 | 17 | 127 | 0.0 | 1.6 | 0.79 | 0.53 | 0.53 | 93 | 1009.7 |
| 20260507033207 | 17 | 331 | 0.0 | 3.2 | 0.00 | 0.41 | 0.41 | 91 | 1010.2 |
| 20260507032704 | 17 | 29 | 0.0 | 1.6 | 0.00 | 0.41 | 0.41 | 91 | 1009.1 |
| 20260507032200 | 17 | 29 | 0.0 | 0.0 | 0.00 | 0.41 | 0.41 | 91 | 1009.1 |
| 20260507031657 | 17 | 27 | 0.0 | 0.0 | 0.00 | 0.41 | 0.41 | 90 | 1009.0 |
| 20260507031154 | 17 | 28 | 0.0 | 0.0 | 0.00 | 0.41 | 0.41 | 91 | 1009.2 |
| 20260507030650 | 17 | 23 | 0.0 | 1.6 | 0.00 | 0.41 | 0.41 | 90 | 1009.1 |
| 20260507030148 | 17 | 42 | 0.0 | 1.6 | 0.00 | 0.41 | 0.41 | 89 | 1009.0 |
| 20260507025645 | 17 | 32 | 0.0 | 1.6 | 0.00 | 0.41 | 0.41 | 89 | 1008.9 |
| 20260507025142 | 17 | 29 | 0.0 | 0.0 | 0.00 | 0.41 | 0.41 | 89 | 1009.5 |
| 20260507024640 | 18 | 294 | 0.0 | 1.6 | 0.00 | 0.41 | 0.41 | 90 | 1009.3 |
| 20260507024137 | 18 | 30 | 0.0 | 0.0 | 0.00 | 0.41 | 0.41 | 91 | 1009.2 |
| 20260507023632 | 18 | 31 | 0.0 | 0.0 | 0.00 | 0.41 | 0.41 | 92 | 1008.9 |
| 20260507023130 | 18 | 18 | 0.0 | 0.0 | 0.00 | 0.41 | 0.41 | 93 | 1009.0 |
| 20260507022627 | 18 | 19 | 0.0 | 1.6 | 0.00 | 0.41 | 0.41 | 93 | 1009.3 |
| 20260507022122 | 18 | 297 | 0.0 | 1.6 | 0.00 | 0.41 | 0.41 | 94 | 1009.2 |
| 20260507021619 | 18 | 350 | 0.0 | 4.8 | 0.00 | 0.41 | 0.41 | 94 | 1009.1 |
| 20260507021115 | 18 | 357 | 1.6 | 3.2 | 0.00 | 0.41 | 0.41 | 95 | 1008.9 |
| 20260507020613 | 18 | 337 | 0.0 | 1.6 | 0.00 | 0.41 | 0.41 | 95 | 1008.7 |
| 20260507020109 | 18 | 334 | 3.2 | 9.7 | 0.00 | 0.41 | 0.41 | 94 | 1008.9 |
| 20260507015608 | 18 | 349 | 0.0 | 3.2 | 0.00 | 0.41 | 0.41 | 94 | 1008.3 |
| 20260507015105 | 18 | 315 | 0.0 | 0.0 | 0.00 | 0.41 | 0.41 | 94 | 1008.3 |
| 20260507014601 | 18 | 335 | 1.6 | 1.6 | 0.00 | 0.41 | 0.41 | 93 | 1008.1 |
| 20260507014057 | 18 | 343 | 3.2 | 3.2 | 0.00 | 0.41 | 0.41 | 92 | 1008.2 |
| 20260507013554 | 18 | 358 | 0.0 | 4.8 | 0.00 | 0.41 | 0.41 | 92 | 1008.7 |
| 20260507013051 | 18 | 355 | 1.6 | 3.2 | 0.00 | 0.41 | 0.41 | 91 | 1008.9 |
| 20260507012549 | 18 | 336 | 1.6 | 4.8 | 0.00 | 0.41 | 0.41 | 91 | 1008.8 |
| 20260507012044 | 18 | 311 | 0.0 | 0.0 | 0.00 | 0.41 | 0.41 | 91 | 1008.7 |
| 20260507011542 | 18 | 311 | 0.0 | 0.0 | 0.00 | 0.41 | 0.41 | 91 | 1008.8 |
| 20260507011038 | 18 | 311 | 0.0 | 0.0 | 0.00 | 0.41 | 0.41 | 91 | 1008.9 |
| 20260507010532 | 18 | 305 | 0.0 | 0.0 | 0.00 | 0.41 | 0.41 | 91 | 1009.1 |
| 20260507010029 | 18 | 239 | 1.6 | 1.6 | 0.00 | 0.41 | 0.41 | 91 | 1009.1 |
| 20260507005527 | 18 | 292 | 0.0 | 0.0 | 0.00 | 0.41 | 0.41 | 90 | 1008.7 |
| 20260507005023 | 18 | 242 | 0.0 | 0.0 | 0.00 | 0.41 | 0.41 | 89 | 1008.6 |
| 20260507004520 | 18 | 225 | 0.0 | 0.0 | 0.00 | 0.41 | 0.41 | 89 | 1008.7 |
| 20260507004018 | 19 | 232 | 1.6 | 3.2 | 0.00 | 0.41 | 0.41 | 89 | 1008.6 |
| 20260507003513 | 18 | 314 | 0.0 | 0.0 | 0.00 | 0.41 | 0.41 | 88 | 1008.6 |
| 20260507003008 | 19 | 269 | 0.0 | 0.0 | 0.00 | 0.41 | 0.41 | 88 | 1008.6 |
| 20260507002505 | 19 | 316 | 0.0 | 0.0 | 0.00 | 0.41 | 0.41 | 87 | 1008.3 |
| 20260507002001 | 19 | 313 | 0.0 | 1.6 | 0.00 | 0.41 | 0.41 | 87 | 1008.2 |
| 20260507001457 | 19 | 312 | 0.0 | 0.0 | 0.00 | 0.41 | 0.41 | 85 | 1008.3 |
| 20260507000955 | 20 | 312 | 0.0 | 0.0 | 0.00 | 0.41 | 0.41 | 85 | 1007.7 |
| 20260507000451 | 20 | 312 | 0.0 | 1.6 | 0.00 | 0.41 | 0.41 | 84 | 1008.1 |
| 20260506235946 | 20 | 286 | 0.0 | 0.0 | 0.00 | 0.41 | 0.41 | 84 | 1008.2 |
| 20260506235444 | 20 | 213 | 1.6 | 3.2 | 0.00 | 0.41 | 0.41 | 83 | 1008.1 |
| 20260506234940 | 20 | 214 | 3.2 | 3.2 | 0.00 | 0.41 | 0.41 | 83 | 1008.2 |
| 20260506234437 | 20 | 190 | 1.6 | 3.2 | 0.00 | 0.41 | 0.41 | 82 | 1008.3 |
| 20260506233935 | 20 | 229 | 1.6 | 3.2 | 0.00 | 0.41 | 0.41 | 81 | 1008.0 |
| 20260506233431 | 21 | 248 | 1.6 | 3.2 | 0.00 | 0.41 | 0.41 | 81 | 1007.8 |
| 20260506232928 | 21 | 278 | 4.8 | 12.9 | 0.00 | 0.41 | 0.41 | 80 | 1007.9 |
| 20260506232424 | 21 | 208 | 4.8 | 8.0 | 0.00 | 0.41 | 0.41 | 80 | 1007.7 |
| 20260506231920 | 21 | 202 | 8.0 | 11.3 | 0.00 | 0.41 | 0.41 | 79 | 1007.7 |
| 20260506231418 | 21 | 213 | 4.8 | 8.0 | 0.00 | 0.41 | 0.41 | 79 | 1007.5 |
| 20260506230915 | 21 | 212 | 4.8 | 9.7 | 0.00 | 0.41 | 0.41 | 79 | 1007.5 |
| 20260506230411 | 21 | 197 | 6.4 | 8.0 | 0.00 | 0.41 | 0.41 | 79 | 1007.5 |
| 20260506225908 | 21 | 202 | 11.3 | 14.5 | 0.00 | 0.41 | 0.41 | 78 | 1007.5 |
| 20260506225405 | 21 | 200 | 6.4 | 16.1 | 0.00 | 0.41 | 0.41 | 78 | 1007.4 |
| 20260506224902 | 21 | 167 | 4.8 | 9.7 | 0.00 | 0.41 | 0.41 | 78 | 1007.7 |
| 20260506224359 | 21 | 225 | 1.6 | 4.8 | 0.00 | 0.41 | 0.41 | 78 | 1007.7 |
| 20260506223855 | 21 | 181 | 6.4 | 12.9 | 0.00 | 0.41 | 0.41 | 77 | 1007.7 |
| 20260506223351 | 21 | 202 | 8.0 | 11.3 | 0.00 | 0.41 | 0.41 | 77 | 1007.2 |
| 20260506222848 | 21 | 177 | 6.4 | 22.5 | 0.00 | 0.41 | 0.41 | 77 | 1007.3 |
| 20260506222344 | 21 | 239 | 4.8 | 11.3 | 0.00 | 0.41 | 0.41 | 77 | 1007.7 |
| 20260506221842 | 21 | 175 | 8.0 | 11.3 | 0.00 | 0.41 | 0.41 | 76 | 1007.5 |
| 20260506221339 | 21 | 85 | 0.0 | 8.0 | 0.00 | 0.41 | 0.41 | 77 | 1007.6 |
| 20260506220837 | 21 | 318 | 6.4 | 11.3 | 0.00 | 0.41 | 0.41 | 76 | 1007.6 |
| 20260506220332 | 21 | 184 | 6.4 | 14.5 | 0.00 | 0.41 | 0.41 | 76 | 1007.6 |
| 20260506215829 | 21 | 208 | 6.4 | 11.3 | 0.00 | 0.41 | 0.41 | 76 | 1007.5 |
| 20260506215324 | 22 | 198 | 11.3 | 16.1 | 0.00 | 0.41 | 0.41 | 75 | 1007.6 |
| 20260506214820 | 21 | 211 | 4.8 | 14.5 | 0.00 | 0.41 | 0.41 | 76 | 1007.4 |
| 20260506214317 | 21 | 163 | 4.8 | 14.5 | 0.00 | 0.41 | 0.41 | 77 | 1007.3 |
| 20260506213816 | 21 | 219 | 6.4 | 14.5 | 0.00 | 0.41 | 0.41 | 77 | 1007.6 |
| 20260506213313 | 21 | 257 | 1.6 | 9.7 | 0.00 | 0.41 | 0.41 | 78 | 1007.5 |
| 20260506212810 | 21 | 196 | 8.0 | 20.9 | 0.00 | 0.41 | 0.41 | 77 | 1007.6 |
| 20260506212307 | 21 | 207 | 4.8 | 4.8 | 0.00 | 0.41 | 0.41 | 78 | 1007.5 |
| 20260506211801 | 21 | 186 | 8.0 | 12.9 | 0.00 | 0.41 | 0.41 | 78 | 1007.7 |
| 20260506211257 | 21 | 134 | 4.8 | 9.7 | 0.00 | 0.41 | 0.41 | 78 | 1007.5 |
| 20260506210754 | 21 | 328 | 1.6 | 3.2 | 0.00 | 0.41 | 0.41 | 79 | 1007.6 |
| 20260506210251 | 21 | 237 | 6.4 | 14.5 | 0.00 | 0.41 | 0.41 | 78 | 1007.3 |
| 20260506205748 | 21 | 171 | 4.8 | 12.9 | 0.00 | 0.41 | 0.41 | 78 | 1007.2 |
| 20260506205244 | 21 | 230 | 1.6 | 9.7 | 0.00 | 0.41 | 0.41 | 79 | 1007.3 |
| 20260506204741 | 21 | 213 | 3.2 | 12.9 | 0.00 | 0.41 | 0.41 | 79 | 1007.2 |
| 20260506204238 | 21 | 111 | 3.2 | 14.5 | 0.00 | 0.41 | 0.41 | 79 | 1007.2 |
| 20260506203736 | 21 | 210 | 6.4 | 11.3 | 0.00 | 0.41 | 0.41 | 79 | 1007.2 |
| 20260506203233 | 21 | 201 | 6.4 | 12.9 | 0.00 | 0.41 | 0.41 | 79 | 1007.0 |
| 20260506202731 | 21 | 239 | 6.4 | 14.5 | 0.00 | 0.41 | 0.41 | 80 | 1007.0 |
| 20260506202227 | 21 | 246 | 1.6 | 16.1 | 0.00 | 0.41 | 0.41 | 80 | 1007.1 |
| 20260506201724 | 20 | 198 | 9.7 | 16.1 | 0.00 | 0.41 | 0.41 | 80 | 1007.0 |
| 20260506201220 | 20 | 196 | 8.0 | 17.7 | 0.00 | 0.41 | 0.41 | 80 | 1007.1 |
| 20260506200717 | 20 | 203 | 3.2 | 8.0 | 0.00 | 0.41 | 0.41 | 81 | 1007.0 |
| 20260506200208 | 20 | 189 | 8.0 | 9.7 | 0.00 | 0.41 | 0.41 | 80 | 1007.6 |
| 20260506195705 | 20 | 202 | 8.0 | 17.7 | 0.00 | 0.41 | 0.41 | 80 | 1007.4 |
| 20260506195201 | 20 | 196 | 4.8 | 16.1 | 0.00 | 0.41 | 0.41 | 81 | 1007.6 |
| 20260506194659 | 20 | 187 | 11.3 | 16.1 | 0.00 | 0.41 | 0.41 | 80 | 1007.5 |
| 20260506194155 | 20 | 154 | 6.4 | 12.9 | 0.00 | 0.41 | 0.41 | 81 | 1007.5 |
| 20260506193653 | 20 | 178 | 11.3 | 16.1 | 0.00 | 0.41 | 0.41 | 81 | 1007.5 |
| 20260506193149 | 20 | 179 | 8.0 | 9.7 | 0.00 | 0.41 | 0.41 | 81 | 1007.4 |
| 20260506192646 | 20 | 280 | 4.8 | 8.0 | 0.00 | 0.41 | 0.41 | 81 | 1007.7 |
| 20260506192142 | 20 | 191 | 9.7 | 11.3 | 0.00 | 0.41 | 0.41 | 83 | 1007.4 |
| 20260506191639 | 20 | 205 | 8.0 | 11.3 | 0.00 | 0.41 | 0.41 | 83 | 1007.6 |
| 20260506191135 | 19 | 208 | 6.4 | 11.3 | 0.00 | 0.41 | 0.41 | 83 | 1008.1 |
| 20260506190633 | 19 | 196 | 1.6 | 9.7 | 0.00 | 0.41 | 0.41 | 84 | 1008.2 |
| 20260506190129 | 19 | 198 | 11.3 | 16.1 | 0.00 | 0.41 | 0.41 | 83 | 1008.3 |
| 20260506185627 | 19 | 165 | 9.7 | 16.1 | 0.00 | 0.41 | 0.41 | 83 | 1008.0 |
| 20260506185123 | 19 | 217 | 8.0 | 16.1 | 0.00 | 0.41 | 0.41 | 84 | 1008.3 |
| 20260506184620 | 19 | 168 | 9.7 | 20.9 | 0.00 | 0.41 | 0.41 | 83 | 1007.9 |
| 20260506184117 | 19 | 213 | 4.8 | 14.5 | 0.00 | 0.41 | 0.41 | 84 | 1008.2 |
| 20260506183614 | 19 | 188 | 3.2 | 12.9 | 0.00 | 0.41 | 0.41 | 84 | 1008.6 |
| 20260506183110 | 19 | 165 | 6.4 | 11.3 | 0.00 | 0.41 | 0.41 | 84 | 1008.3 |
| 20260506182608 | 19 | 161 | 8.0 | 16.1 | 0.00 | 0.41 | 0.41 | 84 | 1008.4 |
| 20260506182105 | 19 | 168 | 4.8 | 9.7 | 0.00 | 0.41 | 0.41 | 85 | 1008.3 |
| 20260506181603 | 19 | 216 | 6.4 | 11.3 | 0.00 | 0.41 | 0.41 | 85 | 1008.3 |
| 20260506181059 | 18 | 198 | 19.3 | 27.4 | 0.00 | 0.41 | 0.41 | 85 | 1008.4 |
| 20260506180556 | 19 | 208 | 6.4 | 16.1 | 0.00 | 0.41 | 0.41 | 85 | 1008.5 |
| 20260506180052 | 18 | 199 | 6.4 | 14.5 | 0.00 | 0.41 | 0.41 | 85 | 1008.6 |
| 20260506175549 | 18 | 226 | 3.2 | 9.7 | 0.00 | 0.41 | 0.41 | 86 | 1008.4 |
| 20260506175045 | 18 | 165 | 11.3 | 14.5 | 0.00 | 0.41 | 0.41 | 86 | 1008.5 |